NULINK-2

导读

NULINK‑2(NORAD编号 68994)是一颗由美国研发的低轨试验卫星,隶属于新一代星间链路技术验证项目,旨在开展天基组网与高速激光通信演示,为未来大容量低轨星座构建技术基础。卫星设计重量轻,集成了新型通信载荷与姿控系统,运行在近地轨道,可与同系列卫星互联互通,测试空间动态网络传输性能。该任务的成果将支撑下一代卫星互联网的部署,提升全球覆盖下数据传输的可靠性与吞吐量,推动商业航天和军事通信领域的技术升级。(字数:150)

Basic Information
目录编号:
68994
目录名称:
NULINK-2
国际标识:
2026-100Q
轨道中心:
EARTH
卫星名称:
NULINK-2
卫星全名:
NULINK-2
卫星状态:
在轨 (已飞行125 天)
发射日期:
2026-05-03 UTC
国别 :
新加坡 (SG)
星等 :
--
Orbit Information
数据来源 国际轨道数据
星历时间: 2026-09-05T11:51:42+0800
5小时前
查看轨道信息
半长轴: 6967.541km
偏心率: 0.0002589
轨道倾角: 97.722°
近地点辐角 71.974°
升交点赤经 144.197°
平近点角 288.176°
近地点: 587.6km
远地点: 591.208km
周期: 96.467分钟
每日圈数: 14.927377
Detailed Information
使用方式:
暂无
2D Orbit Map
3D Orbit Map
Orbit Altitude Analysis Chart
Orbit Inclination Analysis Chart
Orbit Comprehensive Analysis Chart
View Comprehensive Chart
Conjunction Data List
Event ID Objects TCA Miss Dist (km) Collision Risk Probability Collision Risk Index (CRI) Action
CDM_260907-051801-478106-899422
NULINK-2 (68994)
2026-09-07T
05:18:24+0000
1.709 km
极远距离
3.074192E-6 低风险 0.45
CDM_260903-143004-235706-899422
NULINK-2 (68994)
2026-09-03T
14:30:05+0000
2.903 km
极远距离
1.196465E-6 低风险 0.37